Other Public Products
Issued by NWS Grand Forks, ND

Home | Current Version | Previous Version | Graphics & Text | Print | Product List | Glossary On
Versions: 1 2 3 4 5 6 7 8 9 10 11 12 13 14 15 16 17 18 19 20 21 22 23 24 25 26 27 28 29 30 31 32 33 34 35 36 37 38 39 40 41 42 43 44 45 46 47 48 49 50
000
FPUS83 KFGF 230010
OPUFGF
PRAIRIE TO PINES WEATHER ROUNDUP
NATIONAL WEATHER SERVICE EASTERN NORTH DAKOTA/GRAND FORKS ND
600 PM CST WED NOV 22 2017

 **SATELLITE DATA USED TO AUGMENT SKY COVER AT AUTOMATED STATIONS**
 *****  WEATHER ACROSS EASTERN NORTH DAKOTA  *****

CITY           SKY/WX    TMP DP  RH WIND       PRES   REMARKS
GRAND FORKS    CLOUDY    28  20  71 SE5       29.93S WCI  23
6HR MIN TEMP:  22; 6HR MAX TEMP:  29; 6HR PCP: TRACE;

GRND FORKS AFB CLOUDY    28  19  67 CALM      29.93R
GRND FORKS NWS   N/A     28 N/A N/A SE3         N/A
BUXTON         NOT AVBL
DEVILS LAKE    CLOUDY    28  22  78 N10       29.92R WCI  19
6HR MIN TEMP:  24; 6HR MAX TEMP:  30;

FARGO          FAIR      29  15  56 SE10      29.91S WCI  20
6HR MIN TEMP:  27; 6HR MAX TEMP:  32; 6HR PCP: TRACE;

WAHPETON ARPT  NOT AVBL
$$

 *****  WEATHER ACROSS CENTRAL AND WESTERN NORTH DAKOTA  *****

CITY           SKY/WX    TMP DP  RH WIND       PRES   REMARKS
JAMESTOWN      FAIR      34  27  75 NW10      29.87R
6HR MIN TEMP:  28; 6HR MAX TEMP:  46;

BISMARCK       FAIR      50  36  58 N10       29.91R
6HR MIN TEMP:  43; 6HR MAX TEMP:  63;

MINOT          FAIR      27  20  75 NW8       29.94R WCI  19
6HR MIN TEMP:  27; 6HR MAX TEMP:  43;

MINOT AFB      FAIR      27  20  75 N7        29.94R WCI  20
6HR MIN TEMP:  27; 6HR MAX TEMP:  40;

GARRISON         N/A     33  30  88 N6        29.93R
6HR MIN TEMP:  32; 6HR MAX TEMP:  50;

WILLISTON      FAIR      34  26  72 NE6       29.97R
6HR MIN TEMP:  34; 6HR MAX TEMP:  51;

DICKINSON      FAIR      45  35  68 NW12      29.92R
6HR MIN TEMP:  45; 6HR MAX TEMP:  63;

HETTINGER      FAIR      52  37  56 NW10      29.97R
6HR MIN TEMP:  52; 6HR MAX TEMP:  67;

$$

 *****  OTHER OBSERVATIONS NORTHEAST NORTH DAKOTA  *****

CITY           SKY/WX    TMP DP  RH WIND       PRES   REMARKS
WALHALLA       FAIR      21  21 100 SE3       29.93S
LANGDON        CLOUDY    27  25  93 NW5       29.90R WCI  21
CAVALIER       CLOUDY    23  19  86 SE5       29.94R WCI  17
GRAFTON        CLOUDY    25  21  86 NE5       29.97R WCI  19
CANDO          CLOUDY    27  25  93 N7        29.94R WCI  19
FORT TOTTEN      N/A     29  22  74 N6        29.95S WCI  23
ROLLA          CLOUDY    23  21  93 NW8       29.92R WCI  14
RUGBY            N/A     30  23  74 NW6       29.92R WCI  24
 ***** THE ABOVE OBSERVATIONS ARE NON NWS ARE NOT QUALITY
        CONTROLLED AND MAY MIS-REPORT RAIN FOR SNOW...
$$

 *****  OTHER OBSERVATIONS SOUTHEAST NORTH DAKOTA *****

CITY           SKY/WX    TMP DP  RH WIND       PRES   REMARKS
COOPERSTOWN    FAIR      27  19  74 VRB7      29.88R WCI  19
VALLEY CITY    FAIR      30  19  64 SW6       29.88S WCI  24
OAKES            N/A     30  19  64 S8G14     29.88S WCI  23
GWINNER          N/A     28  18  64 SW8       29.89R WCI  20
SHEYENNE NWR     N/A     28  17  63 CALM      29.95S
BUFFALO        NOT AVBL
WYNDMERE       NOT AVBL
 ***** THE ABOVE OBSERVATIONS ARE NON NWS ARE NOT QUALITY
       CONTROLLED AND MAY MIS-REPORT RAIN FOR SNOW...
$$

  *****  WEATHER ACROSS NORTHERN MINNESOTA  *****

CITY           SKY/WX    TMP DP  RH WIND       PRES   REMARKS
FLAG ISLAND    CLOUDY    19  16  86 S8        29.94R WCI   9
WARROAD        LGT SNOW  21  18  86 S3        29.95F
ROSEAU         CLOUDY    23  18  80 S9        29.94F WCI  13
HALLOCK        CLOUDY    25  21  86 S8        29.95S WCI  16
THF RVR FALLS  CLOUDY    23  18  81 E7        29.95F WCI  15
6HR MIN TEMP:  20; 6HR MAX TEMP:  23; 6HR PCP: TRACE;

HALSTAD        NOT AVBL
FOSSTON        CLOUDY    23  18  80 CALM      29.95R
BAUDETTE       CLOUDY    19  16  88 S7        29.94F WCI  10
6HR MIN TEMP:  15; 6HR MAX TEMP:  19; 6HR PCP: TRACE;

WASKISH        CLOUDY    19  18  93 CALM      29.97R
CROOKSTON      CLOUDY    28  19  69 S7        29.95F WCI  21
$$
  *****  WEATHER ACROSS CENTRAL AND WEST MINNESOTA  *****

CITY           SKY/WX    TMP DP  RH WIND       PRES   REMARKS
BEMIDJI        CLOUDY    21  16  83 SE3       29.96R
6HR MIN TEMP:  17; 6HR MAX TEMP:  21;

PARK RAPIDS    CLOUDY    23  16  74 S7        29.94R WCI  15
6HR MIN TEMP:  19; 6HR MAX TEMP:  23; 6HR PCP:  0.01;

WADENA         CLOUDY    25  16  68 S9        29.94F WCI  15
DETROIT LAKES  FAIR      28  18  64 S8        29.93S WCI  20
MOORHEAD       FAIR      27  16  63 SE10      29.92F WCI  17
FERGUS FALLS   FAIR      27  16  63 SE9       29.95S WCI  17
ELBOW LAKE     FAIR      27  16  61 NW6       29.94R HAZE    WCI  21
MORRIS MN      FAIR      28  16  59 SE8       29.92S WCI  20
STAPLES        CLOUDY    25  12  58 S9        29.96S WCI  15
WHEATON        FAIR      27  16  63 SE7       29.93S WCI  19
$$
  *****  WEATHER ELSEWHERE ACROSS MINNESOTA  *****

CITY           SKY/WX    TMP DP  RH WIND       PRES   REMARKS
DULUTH         CLOUDY    20  16  84 S7        29.99F WCI  11
6HR MIN TEMP:  18; 6HR MAX TEMP:  20; 6HR PCP: TRACE;

INTRNTL FALLS  CLOUDY    20  14  77 S7        29.95F WCI  11
6HR MIN TEMP:  18; 6HR MAX TEMP:  20;

ELY            CLOUDY    19  16  86 CALM      29.98S
CLOQUET        FLURRIES  19  16  86 S6        30.00S WCI  11
BRAINERD       FLURRIES  22  17  81 S7        29.99R WCI  13
6HR MIN TEMP:  20; 6HR MAX TEMP:  22; 6HR PCP:  0.03;

HIBBING        LGT SNOW  19  16  88 VRB5      29.98F FOG     WCI  12
6HR MIN TEMP:  17; 6HR MAX TEMP:  20; 6HR PCP: TRACE;

ALEXANDRIA     CLOUDY    29  15  56 SE7       29.95S WCI  22
6HR MIN TEMP:  23; 6HR MAX TEMP:  29;

SAINT CLOUD    CLOUDY    26  15  63 SE14      29.99F WCI  14
6HR MIN TEMP:  21; 6HR MAX TEMP:  26; 6HR PCP: TRACE;

MINNEAPOLIS    CLOUDY    30  15  53 S6        30.06F WCI  24
6HR MIN TEMP:  23; 6HR MAX TEMP:  30;

$$

  *****  WEATHER ACROSS SOUTH DAKOTA  *****

CITY           SKY/WX    TMP DP  RH WIND       PRES   REMARKS
SIOUX FALLS    FAIR      38  20  48 SW14      29.97S
6HR MIN TEMP:  33; 6HR MAX TEMP:  40;

BROOKINGS      FAIR      34  19  54 S9        29.94R
WATERTOWN      FAIR      31  21  66 S10       29.90F WCI  22
6HR MIN TEMP:  29; 6HR MAX TEMP:  36;

HURON          FAIR      39  23  52 S9        29.92S
6HR MIN TEMP:  31; 6HR MAX TEMP:  41;

SISSETON         N/A     37  22  54 VRB5G17   29.89S
ABERDEEN       FAIR      31  21  66 S7        29.90R WCI  24
6HR MIN TEMP:  30; 6HR MAX TEMP:  38;

MITCHELL       FAIR      36  22  56 SE5       29.95F
PIERRE         FAIR      56  36  47 W8        29.93R
6HR MIN TEMP:  40; 6HR MAX TEMP:  60;

MOBRIDGE       FAIR      51  37  58 NW6       29.87R
RAPID CITY     FAIR      57  37  47 NW7       30.04R
6HR MIN TEMP:  56; 6HR MAX TEMP:  73;

$$

  *****  SOME WEATHER IN NEARBY STATES *****

CITY           SKY/WX    TMP DP  RH WIND       PRES   REMARKS
GLASGOW MT     FAIR      44  36  73 SW6       29.94S
6HR MIN TEMP:  41; 6HR MAX TEMP:  59;

GREAT FALLS MT FAIR      59  41  51 SW37G48   30.00F
6HR MIN TEMP:  57; 6HR MAX TEMP:  59;

CHEYENNE WY    CLOUDY    55  38  52 W10       30.27R
6HR MIN TEMP:  55; 6HR MAX TEMP:  62;

SCOTTSBLUFF NE FAIR      59  40  49 W12       30.14R
6HR MIN TEMP:  59; 6HR MAX TEMP:  72;

OMAHA NE       MOCLDY    38  17  42 S10       30.12F
6HR MIN TEMP:  33; 6HR MAX TEMP:  41;

DES MOINES IA  FAIR      35  14  42 S9        30.15F
6HR MIN TEMP:  32; 6HR MAX TEMP:  39;

DAVENPORT IA   FAIR      31  18  58 S7        30.23F WCI  24
6HR MIN TEMP:  31; 6HR MAX TEMP:  35;

CHICAGO IL     CLOUDY    32  17  54 W3        30.25R
6HR MIN TEMP:  31; 6HR MAX TEMP:  35;

EAU CLAIRE WI  CLOUDY    25  16  68 SE7       30.10F WCI  17
6HR MIN TEMP:  23; 6HR MAX TEMP:  26; 6HR PCP: TRACE;

LA CROSSE WI   CLOUDY    32  16  51 S6        30.14F
6HR MIN TEMP:  27; 6HR MAX TEMP:  32;

$$

  *****  SOME NATIONAL WEATHER *****

CITY           SKY/WX    TMP DP  RH WIND       PRES   REMARKS
LA GUARDIA NY  CLOUDY    43  28  55 NW18G29   30.01R



USA.gov is the U.S. government's official web portal to all federal, state and local government web resources and services.